COSMOS 1275 DEB, 13022

Orbit data source: Space-Track

COSMOS 1275 DEB, 13022 is space debris in LEO originally from a launch on Thu, 04 Jun 1981 UTC launched from the Plesetsk Missile And Space Complex (PKMTR). Debris objects in space refer to the collection of defunct objects orbiting the Earth. Examples of debris include non-operational satellites, rocket bodies, and fragments generated from explosions, collisions, or faulty payload assembly.

Loading next visibility...
Identifier
13022, 1981-053EU
Orbit
LEO
Country
Flag of CISCIS
Related business
Manufacturer
Unknown
Mission
Spacecraft
Bus & Motor
Unknown
Mass
Unknown
Launch date (UTC)
1981-06-04 (44 years ago)
Launch vehicle
Unknown
Launch site
Plesetsk Missile And Space Complex (PKMTR)
Object type
Payload
Rocket body
Debris
Shape & HBR
Unknown shape, 0.1 m
Radar Cross Section
Small (<0.1 m²)

Expand to show TLE details & history
Last TLE update: 22 hours ago

TLE from 22 hours ago
0 COSMOS 1275 DEB
1 13022U 81053EU  25296.91176038  .00001726  00000-0  80149-3 0  9995
2 13022  82.9128  91.3758 0043487 355.1818 158.1292 14.19681410251911
Epoch: 2025-10-23T21:52Z
TLE epoch observation values (Epoch: 2025-10-23T21:52:56.096Z)
Latitude
26.32067°
Longitude
-92.92966°
Altitude
858.775 km
Speed
7.41 km/s
True Right ascension
17h 51m 28s
True Declination
26° 11' 10"
Sunlit
Object was in daylight at epoch
Visualization orbit readout
Latitude
Unknown
Longitude
Unknown
Altitude
Unknown
Speed
Unknown
Apparent Right ascension
Unknown
Apparent Declination
Unknown
Sunlit
N/A
Visualization observer readout
Local Sidereal Time
15:29:45
Azimuth
Unknown
Elevation
Unknown
Doppler factor
Unknown
Orbital elements
Apogee altitude
854.837 km
Perigee altitude
792.201 km
Semi-major axis
7,201.656 km
Eccentricity
0.00435
Inclination
82.9128°
RAAN
91.3758°
Arg. of periapsis
355.1818°
True anomaly
158.3139°
Mean anomaly
158.1292°
Eccentric anomaly
158.22164°
Mean motion
3.55136 °/min
Orbital period
101.37 mins
BSTAR
0.00080149
Loading maneuver chart data...
Computing Atmospheric mass density...

Documentation

Showing up to 5 results
|